| time (UTC) | temp C | wind direction | speed KPH | gust KPH | rain 1hr cm | rain 24hr cm | rain mn cm | humidity % | barometer mb |
| 20260905052556 | 25 | 58 | 1.6 | 3.2 | 0.00 | 0.00 | 0.00 | 38 | 1022.2 |
| 20260905051515 | 25 | 53 | 1.6 | 4.8 | 0.00 | 0.00 | 0.00 | 40 | 1021.9 |
| 20260905050515 | 25 | 0.0 | 0.0 | 0.00 | 0.00 | 0.00 | 40 | 1021.8 | |
| 20260905045515 | 25 | 0.0 | 0.0 | 0.00 | 0.00 | 0.00 | 39 | 1021.8 | |
| 20260905044516 | 26 | 0.0 | 0.0 | 0.00 | 0.00 | 0.00 | 37 | 1021.7 | |
| 20260905043516 | 26 | 53 | 0.0 | 3.2 | 0.00 | 0.00 | 0.00 | 36 | 1021.7 |
| 20260905042516 | 26 | 0.0 | 0.0 | 0.00 | 0.00 | 0.00 | 36 | 1021.7 | |
| 20260905041515 | 26 | 53 | 1.6 | 3.2 | 0.00 | 0.00 | 0.00 | 35 | 1021.7 |
| 20260905035516 | 27 | 72 | 4.8 | 9.7 | 0.00 | 0.00 | 0.00 | 35 | 1021.5 |
| 20260905034516 | 26 | 79 | 3.2 | 4.8 | 0.00 | 0.00 | 0.00 | 36 | 1021.6 |
| 20260905033555 | 26 | 79 | 1.6 | 3.2 | 0.00 | 0.00 | 0.00 | 35 | 1021.6 |
| 20260905032515 | 26 | 0.0 | 3.2 | 0.00 | 0.00 | 0.00 | 34 | 1021.7 | |
| 20260905031555 | 26 | 79 | 3.2 | 4.8 | 0.00 | 0.00 | 0.00 | 33 | 1021.7 |
| 20260905030515 | 26 | 52 | 3.2 | 6.4 | 0.00 | 0.00 | 0.00 | 33 | 1021.6 |
| 20260905025516 | 26 | 52 | 3.2 | 6.4 | 0.00 | 0.00 | 0.00 | 32 | 1021.7 |
| 20260905024516 | 26 | 66 | 4.8 | 8.0 | 0.00 | 0.00 | 0.00 | 31 | 1021.6 |
| 20260905023516 | 26 | 56 | 4.8 | 9.7 | 0.00 | 0.00 | 0.00 | 31 | 1021.7 |
| 20260905022516 | 27 | 71 | 4.8 | 11.3 | 0.00 | 0.00 | 0.00 | 30 | 1021.8 |
| 20260905021516 | 27 | 77 | 6.4 | 11.3 | 0.00 | 0.00 | 0.00 | 30 | 1021.8 |
| 20260905020516 | 27 | 69 | 4.8 | 9.7 | 0.00 | 0.00 | 0.00 | 30 | 1021.8 |
| 20260905015516 | 27 | 56 | 4.8 | 9.7 | 0.00 | 0.00 | 0.00 | 30 | 1021.9 |
| 20260905014516 | 26 | 45 | 3.2 | 4.8 | 0.00 | 0.00 | 0.00 | 31 | 1021.8 |
| 20260905013516 | 27 | 47 | 0.0 | 1.6 | 0.00 | 0.00 | 0.00 | 30 | 1021.9 |
| 20260905012516 | 27 | 0.0 | 0.0 | 0.00 | 0.00 | 0.00 | 29 | 1021.8 | |
| 20260905011556 | 27 | 0.0 | 1.6 | 0.00 | 0.00 | 0.00 | 28 | 1021.9 | |
| 20260905010516 | 27 | 47 | 0.0 | 4.8 | 0.00 | 0.00 | 0.00 | 27 | 1022.0 |
| 20260905005516 | 28 | 70 | 3.2 | 8.0 | 0.00 | 0.00 | 0.00 | 27 | 1022.0 |
| 20260905004516 | 28 | 62 | 4.8 | 9.7 | 0.00 | 0.00 | 0.00 | 26 | 1021.9 |
| 20260905003516 | 27 | 87 | 4.8 | 8.0 | 0.00 | 0.00 | 0.00 | 25 | 1021.9 |
| 20260905002516 | 28 | 86 | 4.8 | 8.0 | 0.00 | 0.00 | 0.00 | 24 | 1021.9 |
| 20260905001516 | 28 | 66 | 6.4 | 9.7 | 0.00 | 0.00 | 0.00 | 24 | 1021.9 |
| 20260905000516 | 28 | 98 | 6.4 | 9.7 | 0.00 | 0.00 | 0.00 | 24 | 1021.9 |
| 20260904235515 | 28 | 80 | 4.8 | 9.7 | 0.00 | 0.00 | 0.00 | 25 | 1021.8 |
| 20260904234555 | 28 | 56 | 6.4 | 12.9 | 0.00 | 0.00 | 0.00 | 26 | 1021.6 |
| 20260904233515 | 28 | 54 | 8.0 | 12.9 | 0.00 | 0.00 | 0.00 | 25 | 1021.6 |
| 20260904232515 | 28 | 76 | 4.8 | 6.4 | 0.00 | 0.00 | 0.00 | 25 | 1021.6 |
| 20260904231555 | 28 | 77 | 3.2 | 8.0 | 0.00 | 0.00 | 0.00 | 24 | 1021.6 |
| 20260904230515 | 28 | 51 | 3.2 | 6.4 | 0.00 | 0.00 | 0.00 | 25 | 1021.6 |
| 20260904225516 | 28 | 58 | 3.2 | 9.7 | 0.00 | 0.00 | 0.00 | 26 | 1021.6 |
| 20260904224515 | 28 | 54 | 4.8 | 12.9 | 0.00 | 0.00 | 0.00 | 26 | 1021.5 |
| 20260904223515 | 28 | 79 | 1.6 | 6.4 | 0.00 | 0.00 | 0.00 | 26 | 1021.3 |
| 20260904222515 | 28 | 0.0 | 3.2 | 0.00 | 0.00 | 0.00 | 25 | 1021.3 | |
| 20260904221515 | 29 | 79 | 1.6 | 3.2 | 0.00 | 0.00 | 0.00 | 25 | 1021.3 |
| 20260904220516 | 29 | 79 | 1.6 | 3.2 | 0.00 | 0.00 | 0.00 | 23 | 1021.3 |
| 20260904215555 | 30 | 79 | 1.6 | 3.2 | 0.00 | 0.00 | 0.00 | 23 | 1021.4 |
| 20260904214516 | 30 | 79 | 3.2 | 4.8 | 0.00 | 0.00 | 0.00 | 23 | 1021.3 |
| 20260904213515 | 30 | 66 | 3.2 | 11.3 | 0.00 | 0.00 | 0.00 | 23 | 1021.3 |
| 20260904212515 | 30 | 49 | 8.0 | 11.3 | 0.00 | 0.00 | 0.00 | 23 | 1021.4 |
| 20260904211555 | 30 | 49 | 8.0 | 11.3 | 0.00 | 0.00 | 0.00 | 22 | 1021.1 |
| 20260904210515 | 30 | 46 | 6.4 | 9.7 | 0.00 | 0.00 | 0.00 | 22 | 1021.0 |
| 20260904205516 | 31 | 248 | 3.2 | 4.8 | 0.00 | 0.00 | 0.00 | 22 | 1021.0 |
| 20260904204516 | 30 | 248 | 1.6 | 4.8 | 0.00 | 0.00 | 0.00 | 22 | 1020.7 |
| 20260904203516 | 31 | 248 | 0.0 | 3.2 | 0.00 | 0.00 | 0.00 | 23 | 1020.6 |
| 20260904202555 | 31 | 248 | 1.6 | 3.2 | 0.00 | 0.00 | 0.00 | 22 | 1020.5 |
| 20260904201515 | 30 | 248 | 1.6 | 1.6 | 0.00 | 0.00 | 0.00 | 22 | 1020.3 |
| 20260904200515 | 30 | 248 | 1.6 | 1.6 | 0.00 | 0.00 | 0.00 | 22 | 1020.2 |
| 20260904195516 | 31 | 0.0 | 0.0 | 0.00 | 0.00 | 0.00 | 23 | 1020.2 | |
| 20260904194516 | 31 | 0.0 | 0.0 | 0.00 | 0.00 | 0.00 | 24 | 1019.9 | |
| 20260904193516 | 31 | 0.0 | 0.0 | 0.00 | 0.00 | 0.00 | 21 | 1020.0 | |
| 20260904192516 | 31 | 0.0 | 0.0 | 0.00 | 0.00 | 0.00 | 22 | 1019.9 | |
| 20260904191515 | 32 | 0.0 | 0.0 | 0.00 | 0.00 | 0.00 | 21 | 1019.7 | |
| 20260904190556 | 32 | 0.0 | 0.0 | 0.00 | 0.00 | 0.00 | 22 | 1019.7 | |
| 20260904185515 | 32 | 0.0 | 0.0 | 0.00 | 0.00 | 0.00 | 22 | 1019.6 | |
| 20260904184556 | 32 | 0.0 | 0.0 | 0.00 | 0.00 | 0.00 | 23 | 1019.6 | |
| 20260904183516 | 33 | 0.0 | 0.0 | 0.00 | 0.00 | 0.00 | 20 | 1019.8 | |
| 20260904182556 | 34 | 0.0 | 0.0 | 0.00 | 0.00 | 0.00 | 20 | 1020.0 | |
| 20260904181515 | 35 | 0.0 | 0.0 | 0.00 | 0.00 | 0.00 | 17 | 1020.1 | |
| 20260904180515 | 36 | 0.0 | 0.0 | 0.00 | 0.00 | 0.00 | 16 | 1020.2 | |
| 20260904175516 | 36 | 248 | 0.0 | 6.4 | 0.00 | 0.00 | 0.00 | 15 | 1020.2 |
| 20260904174555 | 37 | 284 | 1.6 | 3.2 | 0.00 | 0.00 | 0.00 | 15 | 1020.3 |
| 20260904173516 | 37 | 285 | 1.6 | 8.0 | 0.00 | 0.00 | 0.00 | 14 | 1020.4 |
| 20260904172516 | 37 | 238 | 1.6 | 6.4 | 0.00 | 0.00 | 0.00 | 14 | 1020.4 |
| 20260904171516 | 37 | 255 | 1.6 | 4.8 | 0.00 | 0.00 | 0.00 | 14 | 1020.6 |
| 20260904170515 | 37 | 270 | 1.6 | 6.4 | 0.00 | 0.00 | 0.00 | 14 | 1020.4 |
| 20260904165516 | 36 | 271 | 1.6 | 4.8 | 0.00 | 0.00 | 0.00 | 16 | 1020.4 |
| 20260904164515 | 36 | 247 | 1.6 | 6.4 | 0.00 | 0.00 | 0.00 | 15 | 1020.3 |
| 20260904163515 | 36 | 250 | 3.2 | 8.0 | 0.00 | 0.00 | 0.00 | 15 | 1020.5 |
| 20260904162516 | 37 | 241 | 3.2 | 8.0 | 0.00 | 0.00 | 0.00 | 15 | 1020.6 |
| 20260904161516 | 37 | 239 | 4.8 | 8.0 | 0.00 | 0.00 | 0.00 | 14 | 1020.7 |
| 20260904160515 | 37 | 269 | 3.2 | 8.0 | 0.00 | 0.00 | 0.00 | 14 | 1020.7 |
| 20260904155515 | 37 | 269 | 4.8 | 9.7 | 0.00 | 0.00 | 0.00 | 14 | 1020.7 |
| 20260904154516 | 37 | 259 | 3.2 | 8.0 | 0.00 | 0.00 | 0.00 | 14 | 1020.8 |
| 20260904153556 | 37 | 278 | 3.2 | 6.4 | 0.00 | 0.00 | 0.00 | 14 | 1020.9 |
| 20260904152516 | 37 | 291 | 3.2 | 8.0 | 0.00 | 0.00 | 0.00 | 13 | 1020.9 |
| 20260904151516 | 37 | 251 | 3.2 | 9.7 | 0.00 | 0.00 | 0.00 | 13 | 1021.2 |
| 20260904150516 | 37 | 281 | 3.2 | 6.4 | 0.00 | 0.00 | 0.00 | 14 | 1021.3 |
| 20260904145516 | 37 | 289 | 3.2 | 6.4 | 0.00 | 0.00 | 0.00 | 13 | 1021.3 |
| 20260904144516 | 37 | 283 | 3.2 | 8.0 | 0.00 | 0.00 | 0.00 | 13 | 1021.6 |
| 20260904143516 | 37 | 282 | 3.2 | 6.4 | 0.00 | 0.00 | 0.00 | 13 | 1021.6 |
| 20260904142516 | 37 | 275 | 3.2 | 8.0 | 0.00 | 0.00 | 0.00 | 14 | 1021.7 |
| 20260904141616 | 37 | 278 | 3.2 | 6.4 | 0.00 | 0.00 | 0.00 | 13 | 1021.9 |
| 20260904140515 | 37 | 294 | 1.6 | 9.7 | 0.00 | 0.00 | 0.00 | 13 | 1022.0 |
| 20260904135515 | 37 | 296 | 4.8 | 9.7 | 0.00 | 0.00 | 0.00 | 13 | 1022.2 |
| 20260904134516 | 37 | 283 | 4.8 | 11.3 | 0.00 | 0.00 | 0.00 | 13 | 1022.4 |
| 20260904133515 | 37 | 277 | 4.8 | 12.9 | 0.00 | 0.00 | 0.00 | 14 | 1022.5 |
| 20260904132516 | 36 | 276 | 4.8 | 9.7 | 0.00 | 0.00 | 0.00 | 14 | 1022.4 |
| 20260904131516 | 36 | 289 | 3.2 | 8.0 | 0.00 | 0.00 | 0.00 | 14 | 1022.7 |
| 20260904130516 | 36 | 22 | 4.8 | 9.7 | 0.00 | 0.00 | 0.00 | 15 | 1022.9 |
| 20260904125516 | 37 | 42 | 1.6 | 9.7 | 0.00 | 0.00 | 0.00 | 15 | 1023.0 |
| 20260904124516 | 36 | 227 | 3.2 | 6.4 | 0.00 | 0.00 | 0.00 | 15 | 1023.1 |
| 20260904123516 | 36 | 182 | 1.6 | 4.8 | 0.00 | 0.00 | 0.00 | 14 | 1023.2 |
| 20260904122516 | 36 | 254 | 3.2 | 8.0 | 0.00 | 0.00 | 0.00 | 15 | 1023.3 |
| 20260904121516 | 35 | 276 | 1.6 | 4.8 | 0.00 | 0.00 | 0.00 | 16 | 1023.3 |
| 20260904120516 | 35 | 281 | 3.2 | 6.4 | 0.00 | 0.00 | 0.00 | 17 | 1023.4 |
| 20260904115556 | 35 | 316 | 3.2 | 4.8 | 0.00 | 0.00 | 0.00 | 16 | 1023.6 |
| 20260904114516 | 35 | 292 | 1.6 | 4.8 | 0.00 | 0.00 | 0.00 | 17 | 1023.8 |
| 20260904113516 | 34 | 249 | 1.6 | 3.2 | 0.00 | 0.00 | 0.00 | 19 | 1023.8 |
| 20260904112516 | 33 | 249 | 1.6 | 4.8 | 0.00 | 0.00 | 0.00 | 19 | 1023.8 |
| 20260904111556 | 33 | 267 | 1.6 | 4.8 | 0.00 | 0.00 | 0.00 | 19 | 1024.1 |
| 20260904110516 | 33 | 260 | 1.6 | 4.8 | 0.00 | 0.00 | 0.00 | 20 | 1024.3 |
| 20260904105556 | 32 | 179 | 1.6 | 3.2 | 0.00 | 0.00 | 0.00 | 20 | 1024.2 |
| 20260904104516 | 32 | 189 | 3.2 | 4.8 | 0.00 | 0.00 | 0.00 | 21 | 1024.4 |
| 20260904103516 | 31 | 261 | 1.6 | 4.8 | 0.00 | 0.00 | 0.00 | 22 | 1024.5 |
| 20260904102516 | 30 | 274 | 3.2 | 6.4 | 0.00 | 0.00 | 0.00 | 22 | 1024.5 |
| 20260904101516 | 30 | 269 | 1.6 | 6.4 | 0.00 | 0.00 | 0.00 | 23 | 1024.6 |
| 20260904100516 | 29 | 274 | 4.8 | 6.4 | 0.00 | 0.00 | 0.00 | 24 | 1024.7 |
| 20260904095516 | 29 | 269 | 1.6 | 6.4 | 0.00 | 0.00 | 0.00 | 24 | 1024.8 |
| 20260904094516 | 28 | 274 | 1.6 | 4.8 | 0.00 | 0.00 | 0.00 | 25 | 1024.7 |
| 20260904093516 | 28 | 266 | 1.6 | 3.2 | 0.00 | 0.00 | 0.00 | 25 | 1024.6 |
| 20260904092517 | 28 | 258 | 1.6 | 4.8 | 0.00 | 0.00 | 0.00 | 25 | 1024.5 |
| 20260904091516 | 27 | 63 | 1.6 | 4.8 | 0.00 | 0.00 | 0.00 | 25 | 1024.5 |
| 20260904090516 | 26 | 72 | 3.2 | 6.4 | 0.00 | 0.00 | 0.00 | 26 | 1024.3 |
| 20260904085516 | 26 | 72 | 4.8 | 6.4 | 0.00 | 0.00 | 0.00 | 27 | 1024.2 |
| 20260904084516 | 25 | 36 | 4.8 | 9.7 | 0.00 | 0.00 | 0.00 | 28 | 1023.9 |
| 20260904083556 | 24 | 50 | 4.8 | 12.9 | 0.00 | 0.00 | 0.00 | 28 | 1023.9 |
| 20260904082516 | 23 | 44 | 6.4 | 12.9 | 0.00 | 0.00 | 0.00 | 29 | 1023.8 |
| 20260904081616 | 23 | 45 | 4.8 | 12.9 | 0.00 | 0.00 | 0.00 | 29 | 1023.9 |
| 20260904080516 | 23 | 60 | 4.8 | 12.9 | 0.00 | 0.00 | 0.00 | 29 | 1023.8 |
| 20260904075516 | 22 | 68 | 4.8 | 12.9 | 0.00 | 0.00 | 0.00 | 29 | 1023.7 |
| 20260904074516 | 22 | 63 | 6.4 | 12.9 | 0.00 | 0.00 | 0.00 | 30 | 1023.7 |
| 20260904073516 | 22 | 66 | 4.8 | 11.3 | 0.00 | 0.00 | 0.00 | 31 | 1023.9 |
| 20260904072556 | 21 | 44 | 6.4 | 14.5 | 0.00 | 0.00 | 0.00 | 31 | 1023.7 |
| 20260904071516 | 21 | 53 | 4.8 | 9.7 | 0.00 | 0.00 | 0.00 | 33 | 1024.0 |
| 20260904070517 | 21 | 42 | 3.2 | 9.7 | 0.00 | 0.00 | 0.00 | 33 | 1024.0 |
| 20260904065516 | 21 | 49 | 6.4 | 9.7 | 0.00 | 0.00 | 0.00 | 33 | 1023.8 |
| 20260904064516 | 20 | 53 | 3.2 | 8.0 | 0.00 | 0.00 | 0.00 | 33 | 1023.8 |
| 20260904063556 | 20 | 40 | 4.8 | 11.3 | 0.00 | 0.00 | 0.00 | 33 | 1023.7 |
| 20260904062556 | 20 | 48 | 4.8 | 8.0 | 0.00 | 0.00 | 0.00 | 34 | 1023.6 |
| 20260904061516 | 20 | 47 | 4.8 | 9.7 | 0.00 | 0.00 | 0.00 | 33 | 1023.6 |
| 20260904060516 | 20 | 58 | 3.2 | 8.0 | 0.00 | 0.00 | 0.00 | 33 | 1023.7 |
| 20260904055516 | 20 | 73 | 3.2 | 6.4 | 0.00 | 0.00 | 0.00 | 33 | 1023.6 |
| 20260904054516 | 20 | 46 | 1.6 | 3.2 | 0.00 | 0.00 | 0.00 | 33 | 1023.5 |
| 20260904053516 | 20 | 50 | 3.2 | 6.4 | 0.00 | 0.00 | 0.00 | 34 | 1023.3 |